Location: Greene
(44.1583°N, 70.1456°W)
Time: 06:22:07
(UTC-05:00)

ISS - Visible Passes

Search period start: 24 November 2017 00:00
Search period end: 04 December 2017 00:00
Orbit: 402 x 407 km, 51.6° (Epoch: 24 November)

Date Brightness Start Highest point End Pass type
(mag) Time Alt. Az. Time Alt. Az. Time Alt. Az.
25 Nov -1.2 17:52:40 10° SSE 17:52:56 11° SSE 17:52:56 11° SSE visible
26 Nov -1.1 18:35:01 10° SW 18:35:47 16° SW 18:35:47 16° SW visible
27 Nov -2.7 17:43:03 10° SSW 17:45:51 30° SE 17:45:51 30° SE visible
28 Nov -1.9 16:51:34 10° S 16:53:47 17° SE 16:55:50 11° E visible
28 Nov -1.9 18:26:40 10° WSW 18:28:30 30° WSW 18:28:30 30° WSW visible
29 Nov -3.8 17:34:19 10° SW 17:37:34 69° SSE 17:38:23 45° E visible
30 Nov -2.9 16:42:12 10° SSW 16:45:16 37° SE 16:48:12 11° ENE visible
30 Nov -2.1 18:18:38 10° W 18:20:52 31° WNW 18:20:52 31° WNW visible
01 Dec -3.5 17:26:01 10° WSW 17:29:15 58° NNW 17:30:37 30° NE visible
02 Dec -3.8 16:33:33 10° SW 16:36:50 83° SE 16:40:07 10° ENE visible
02 Dec -2.0 18:10:44 10° WNW 18:12:58 25° NW 18:12:58 25° NW visible
03 Dec -2.7 17:17:57 10° W 17:21:00 34° NNW 17:22:38 21° NNE visible
